Location: Bittkow
(50.3000°N, 19.0000°E)
Time: 22:43:12
(UTC+00:00)

Cosmos 2227 - Pass Details

Date: 19 September 2020
Orbit: 836 x 859 km, 71.0° (Epoch: 30 October)

Event Time Altitude Azimuth Distance (km) Brightness Sun altitude
Rises 02:48:41 0° 329° (NNW) 3,418 7.3 -15.9°
Reaches altitude 10° 02:51:09 10° 326° (NNW) 2,475 6.5 -15.6°
Maximum altitude 02:56:46 66° 246° (WSW) 916 4.1 -14.7°
Drops below altitude 10° 03:02:20 10° 165° (SSE) 2,447 6.6 -13.9°
Sets 03:04:46 0° 163° (SSE) 3,376 7.3 -13.5°
